Athens, OH

6:54 AM EDT on April 28, 2017 (GMT -0400)
Ohio University

Weather History for KUNI - January, 2013

Change the Weather History Date:

Wednesday, January 23, 2013

  Actual Average (KPKB) Record (KPKB)
Temperature  
Mean Temperature 14 °F -  
Max Temperature 21 °F 44 °F 69 °F (1967)
Min Temperature 7 °F 24 °F -16 °F (1936)
Degree Days  
Heating Degree Days 51    
Moisture  
Dew Point 7 °F    
Average Humidity 72    
Maximum Humidity 91    
Minimum Humidity 41    
Precipitation  
Precipitation 0.00 in - - ()
Sea Level Pressure  
Sea Level Pressure 30.24 in    
Wind  
Wind Speed 2 mph (SW)    
Max Wind Speed 12 mph    
Max Gust Speed 17 mph    
Visibility 8 miles    
Events Snow    
Averages and records for this station are not official NWS values.
T = Trace of Precipitation, MM = Missing Value Source: NWS Daily Summary

Daily Weather History Graph

Daily Weather History Graph

Search for Another Location

Airport or City:

Trip Planner

Search our weather history database for the weather conditions in past years. The results will help you decide how hot, cold, wet, or windy it might be!

Date:

Astronomy

Jan. 23, 2013 Rise Set
Actual Time 7:42 AM EST 5:39 PM EST
Civil Twilight 7:13 AM EST 6:08 PM EST
Nautical Twilight 6:41 AM EST 6:40 PM EST
Astronomical Twilight 6:09 AM EST 7:12 PM EST
Moon 2:49 PM EST (1/23) 4:52 AM EST (1/23)
Length of Visible Light 10h 54m
Length of Day
9h 56m
Waxing Gibbous, 89% of the Moon is Illuminated
Jan 23
Waxing Gibbous
Jan 26
Full
Feb 3
Last Quarter
Feb 10
New
Feb 17
First Quarter

Hourly Weather History & Observations

Time (EST) Temp. Windchill Dew Point Humidity Pressure Visibility Wind Dir Wind Speed Gust Speed Precip Events Conditions
12:15 AM 12.0 °F - 4.6 °F 72% 30.31 in 10.0 mi Calm Calm - N/A   Clear
12:35 AM 10.8 °F - 3.2 °F 72% 30.31 in 10.0 mi Calm Calm - N/A   Clear
12:55 AM 10.4 °F - 2.8 °F 72% 30.31 in 10.0 mi Calm Calm - N/A   Clear
1:15 AM 9.9 °F - 3.0 °F 74% 30.31 in 10.0 mi Calm Calm - N/A   Clear
1:35 AM 9.1 °F - 3.2 °F 77% 30.31 in 10.0 mi Calm Calm - N/A   Clear
1:55 AM 8.6 °F - 2.8 °F 77% 30.31 in 10.0 mi Calm Calm - N/A   Clear
2:15 AM 8.8 °F - 3.7 °F 80% 30.32 in 10.0 mi Calm Calm - N/A   Clear
2:35 AM 8.1 °F - 2.3 °F 77% 30.33 in 10.0 mi Calm Calm - N/A   Mostly Cloudy
2:55 AM 9.0 °F - 4.1 °F 81% 30.33 in 10.0 mi Calm Calm - N/A   Overcast
3:15 AM 9.5 °F - 4.8 °F 81% 30.33 in 10.0 mi Calm Calm - N/A   Overcast
3:35 AM 9.5 °F - 4.6 °F 81% 30.33 in 10.0 mi Calm Calm - N/A   Mostly Cloudy
3:55 AM 9.3 °F - 5.2 °F 83% 30.33 in 10.0 mi Calm Calm - N/A   Mostly Cloudy
4:15 AM 10.2 °F - 5.7 °F 82% 30.32 in 10.0 mi Calm Calm - N/A   Overcast
4:35 AM 10.4 °F - 5.7 °F 81% 30.32 in 10.0 mi Calm Calm - N/A   Overcast
4:55 AM 10.4 °F - 3.0 °F 72% 30.32 in 10.0 mi Calm Calm - N/A   Mostly Cloudy
5:15 AM 9.5 °F - 4.1 °F 79% 30.32 in 10.0 mi Calm Calm - N/A   Scattered Clouds
5:35 AM 9.0 °F - 4.6 °F 83% 30.32 in 10.0 mi Calm Calm - N/A   Clear
5:55 AM 8.6 °F - 4.8 °F 85% 30.32 in 10.0 mi Calm Calm - N/A   Clear
6:15 AM 8.2 °F - 4.5 °F 85% 30.32 in 10.0 mi Calm Calm - N/A   Clear
6:35 AM 7.5 °F - 4.1 °F 86% 30.32 in 10.0 mi Calm Calm - N/A   Clear
6:55 AM 7.3 °F - 4.1 °F 87% 30.33 in 10.0 mi Calm Calm - N/A   Scattered Clouds
7:15 AM 7.7 °F - 4.8 °F 88% 30.33 in 10.0 mi Calm Calm - N/A   Mostly Cloudy
7:35 AM 8.1 °F - 4.8 °F 87% 30.33 in 10.0 mi Calm Calm - N/A   Mostly Cloudy
7:55 AM 8.6 °F - 5.5 °F 87% 30.33 in 10.0 mi Calm Calm - N/A   Overcast
8:15 AM 9.5 °F - 6.4 °F 87% 30.33 in 10.0 mi Calm Calm - N/A   Overcast
8:35 AM 10.9 °F - 6.1 °F 81% 30.33 in 10.0 mi Calm Calm - N/A   Overcast
8:55 AM 12.2 °F - 6.1 °F 76% 30.33 in 10.0 mi Calm Calm - N/A   Overcast
9:15 AM 13.1 °F 5.4 °F 5.5 °F 72% 30.33 in 10.0 mi South 4.6 mph - N/A   Overcast
9:35 AM 13.8 °F 8.0 °F 5.7 °F 70% 30.34 in 10.0 mi SSW 3.5 mph - N/A   Overcast
10:15 AM 15.3 °F 9.6 °F 5.5 °F 65% 30.33 in 10.0 mi SW 3.5 mph - N/A   Overcast
10:35 AM 16.3 °F 6.7 °F 6.4 °F 65% 30.34 in 10.0 mi WSW 6.9 mph - N/A   Overcast
10:55 AM 16.7 °F 3.8 °F 3.6 °F 56% 30.33 in 10.0 mi WSW 11.5 mph 16.1 mph N/A   Overcast
11:15 AM 17.4 °F 8.0 °F 3.7 °F 55% 30.32 in 10.0 mi SW 6.9 mph - N/A   Overcast
11:35 AM 18.0 °F 6.9 °F 3.4 °F 53% 30.31 in 10.0 mi WSW 9.2 mph - N/A   Overcast
11:55 AM 18.1 °F 6.3 °F 2.8 °F 51% 30.29 in 10.0 mi West 10.4 mph - N/A   Overcast
12:15 PM 19.0 °F 9.0 °F 2.7 °F 49% 30.27 in 10.0 mi WSW 8.1 mph - N/A   Overcast
12:35 PM 20.5 °F 10.0 °F 2.5 °F 46% 30.26 in 10.0 mi SW 9.2 mph - N/A   Overcast
12:55 PM 20.5 °F 11.7 °F 1.4 °F 44% 30.24 in 10.0 mi SSW 6.9 mph - N/A   Overcast
1:15 PM 20.8 °F 11.2 °F 1.6 °F 43% 30.24 in 10.0 mi WSW 8.1 mph - N/A   Overcast
1:35 PM 20.8 °F 10.4 °F 0.3 °F 41% 30.23 in 10.0 mi WSW 9.2 mph 17.3 mph N/A   Overcast
1:55 PM 20.7 °F 13.0 °F 0.3 °F 41% 30.22 in 10.0 mi WSW 5.8 mph - N/A   Overcast
2:15 PM 21.0 °F 11.4 °F 1.0 °F 42% 30.22 in 10.0 mi WSW 8.1 mph - N/A   Overcast
2:35 PM 21.2 °F 12.6 °F 0.7 °F 41% 30.21 in 10.0 mi SSW 6.9 mph - N/A   Overcast
2:55 PM 21.0 °F 9.3 °F 0.7 °F 41% 30.20 in 10.0 mi WSW 11.5 mph - N/A   Overcast
3:15 PM 21.2 °F 11.7 °F 0.9 °F 41% 30.20 in 10.0 mi SW 8.1 mph - N/A   Overcast
3:35 PM 21.2 °F 11.7 °F 1.0 °F 42% 30.19 in 10.0 mi WSW 8.1 mph - N/A   Overcast
3:55 PM 21.2 °F 11.7 °F 1.9 °F 43% 30.19 in 10.0 mi SSW 8.1 mph - N/A   Overcast
4:15 PM 21.2 °F 10.9 °F 3.6 °F 47% 30.18 in 10.0 mi WSW 9.2 mph - N/A   Overcast
4:35 PM 20.8 °F 11.2 °F 5.0 °F 50% 30.17 in 10.0 mi SSW 8.1 mph - N/A   Overcast
4:55 PM 20.3 °F 9.8 °F 7.7 °F 58% 30.17 in 10.0 mi SSW 9.2 mph - N/A Snow Light Snow
5:15 PM 19.4 °F 11.5 °F 10.8 °F 69% 30.16 in 4.0 mi WSW 5.8 mph - N/A Snow Light Snow
5:35 PM 19.0 °F 13.9 °F 12.6 °F 76% 30.15 in 5.0 mi SW 3.5 mph - N/A Snow Light Snow
5:55 PM 18.5 °F 11.7 °F 13.1 °F 79% 30.14 in 2.5 mi SW 4.6 mph - N/A Snow Light Snow
6:15 PM 18.5 °F 13.3 °F 14.0 °F 83% 30.15 in 1.5 mi WSW 3.5 mph - N/A Snow Light Snow
6:35 PM 18.5 °F - 14.5 °F 85% 30.15 in 2.0 mi Calm Calm - N/A Snow Light Snow
6:55 PM 18.5 °F - 14.5 °F 85% 30.14 in 3.0 mi Calm Calm - N/A Snow Light Snow
7:15 PM 18.5 °F - 14.9 °F 86% 30.14 in 2.5 mi Calm Calm - N/A Snow Light Snow
7:35 PM 18.5 °F - 14.9 °F 86% 30.13 in 3.0 mi Calm Calm - N/A Snow Light Snow
7:55 PM 18.5 °F - 14.9 °F 86% 30.12 in 2.5 mi Calm Calm - N/A Snow Light Snow
8:15 PM 18.3 °F - 15.1 °F 87% 30.11 in 2.0 mi Calm Calm - N/A Snow Light Snow
8:35 PM 18.3 °F - 15.3 °F 88% 30.11 in 1.5 mi Calm Calm - N/A Snow Light Snow
8:55 PM 18.3 °F - 15.4 °F 89% 30.11 in 1.5 mi Calm Calm - N/A Snow Light Snow
9:15 PM 18.1 °F - 15.4 °F 89% 30.10 in 2.5 mi Calm Calm - N/A Snow Light Snow
9:35 PM 18.3 °F - 15.6 °F 89% 30.11 in 2.5 mi Calm Calm - N/A Snow Light Snow
9:55 PM 18.1 °F - 15.6 °F 90% 30.10 in 2.0 mi Calm Calm - N/A Snow Light Snow
10:15 PM 18.1 °F - 15.8 °F 91% 30.09 in 2.5 mi Calm Calm - N/A Snow Light Snow
10:35 PM 18.3 °F - 15.4 °F 89% 30.09 in 3.0 mi Calm Calm - N/A Snow Light Snow
10:55 PM 18.1 °F - 15.1 °F 88% 30.10 in 10.0 mi Calm Calm - N/A Snow Light Snow
11:15 PM 17.6 °F - 15.3 °F 91% 30.09 in 10.0 mi Calm Calm - N/A Snow Light Snow
11:35 PM 18.1 °F - 15.6 °F 90% 30.09 in 5.0 mi Calm Calm - N/A Snow Light Snow
11:55 PM 18.0 °F - 15.3 °F 89% 30.08 in 7.0 mi Calm Calm - N/A Snow Light Snow